User: anonymous   Login
Location: Unspecified
(0.0000°N, 0.0000°E)
Time: 15:14:18
(UTC+00:00)
Language:

Tansei-3 - Orbit

View from above orbital plane
View from above orbital plane
View from above satellite
View from above satellite

Ground track
Ground track

The orbit data is extracted from the following two-line orbital elements,

1  9841U 77012A   17323.92492309 -.00000023 +00000-0 +33975-4 0  9990
2  9841 065.7562 153.3101 1721783 067.6149 309.7782 10.73814460597484
Epoch (UTC): 19 November 2017 22:11:53
Eccentricity: 0.1721783
inclination: 65.7562°
perigee height: 806 km
apogee height: 3794 km
right ascension of ascending node: 153.3101°
argument of perigee: 67.6149°
revolutions per day: 10.73814460
mean anomaly at epoch: 309.7782°
orbit number at epoch: 59748

The dashed part of the orbit path shows where the satellite is in the earth's shadow,  

DLR